| time (UTC) | temp F | wind direction | speed knots | gust knots | rain 1hr in | rain 24hr in | rain mn in | humidity % | barometer mb |
| 20260503202708 | 53 | 295 | 1.7 | 2.6 | 0.00 | 0.00 | 0.00 | 75 | 1007.4 |
| 20260503200709 | 53 | 310 | 1.7 | 2.6 | 0.00 | 0.00 | 0.00 | 75 | 1007.4 |
| 20260503194708 | 54 | 308 | 2.6 | 4.3 | 0.00 | 0.00 | 0.00 | 74 | 1007.5 |
| 20260503192708 | 54 | 275 | 1.7 | 3.5 | 0.00 | 0.00 | 0.00 | 73 | 1007.5 |
| 20260503190708 | 55 | 276 | 3.5 | 7.0 | 0.00 | 0.00 | 0.00 | 67 | 1007.6 |
| 20260503184708 | 55 | 242 | 3.5 | 5.2 | 0.00 | 0.00 | 0.00 | 69 | 1007.5 |
| 20260503182708 | 56 | 256 | 3.5 | 4.3 | 0.00 | 0.00 | 0.00 | 66 | 1007.4 |
| 20260503180708 | 56 | 244 | 3.5 | 4.3 | 0.00 | 0.00 | 0.00 | 66 | 1007.4 |
| 20260503174708 | 56 | 248 | 4.3 | 6.1 | 0.00 | 0.00 | 0.00 | 64 | 1007.4 |
| 20260503172714 | 56 | 227 | 2.6 | 5.2 | 0.00 | 0.00 | 0.00 | 66 | 1007.3 |
| 20260503170708 | 56 | 209 | 5.2 | 8.7 | 0.00 | 0.00 | 0.00 | 64 | 1007.4 |
| 20260503150707 | 59 | 210 | 7.0 | 11.3 | 0.00 | 0.00 | 0.00 | 58 | 1007.5 |
| 20260503130707 | 59 | 193 | 5.2 | 9.6 | 0.00 | 0.00 | 0.00 | 56 | 1007.6 |
| 20260503110707 | 61 | 268 | 9.6 | 17.4 | 0.00 | 0.00 | 0.00 | 49 | 1007.7 |
| 20260503080706 | 55 | 245 | 1.7 | 4.3 | 0.00 | 0.00 | 0.00 | 63 | 1007.4 |
| 20260503072706 | 51 | 291 | 3.5 | 5.2 | 0.00 | 0.00 | 0.00 | 71 | 1007.2 |
| 20260503070706 | 51 | 304 | 5.2 | 7.8 | 0.00 | 0.00 | 0.00 | 74 | 1007.0 |
| 20260503054706 | 50 | 306 | 5.2 | 9.6 | 0.00 | 0.00 | 0.00 | 72 | 1006.3 |
| 20260503052706 | 48 | 310 | 5.2 | 7.8 | 0.00 | 0.00 | 0.00 | 76 | 1006.0 |
| 20260503050705 | 47 | 299 | 5.2 | 7.8 | 0.00 | 0.00 | 0.00 | 80 | 1005.9 |
| 20260503044705 | 45 | 282 | 6.1 | 8.7 | 0.00 | 0.00 | 0.00 | 83 | 1005.9 |
| 20260503042705 | 45 | 280 | 7.8 | 10.4 | 0.00 | 0.00 | 0.00 | 84 | 1006.0 |
| 20260503040705 | 45 | 245 | 5.2 | 8.7 | 0.00 | 0.00 | 0.00 | 84 | 1005.6 |
| 20260503034705 | 44 | 232 | 3.5 | 5.2 | 0.00 | 0.00 | 0.00 | 87 | 1005.5 |
| 20260503032705 | 43 | 239 | 3.5 | 5.2 | 0.00 | 0.00 | 0.00 | 89 | 1005.5 |
| 20260503030705 | 43 | 238 | 4.3 | 7.0 | 0.00 | 0.00 | 0.00 | 89 | 1005.7 |
| 20260503024706 | 43 | 241 | 4.3 | 7.8 | 0.00 | 0.00 | 0.00 | 88 | 1005.6 |
| 20260503022705 | 43 | 223 | 5.2 | 8.7 | 0.00 | 0.00 | 0.00 | 88 | 1005.5 |
| 20260503020705 | 44 | 230 | 7.0 | 9.6 | 0.00 | 0.00 | 0.00 | 87 | 1005.5 |
| 20260503014705 | 44 | 230 | 6.1 | 9.6 | 0.00 | 0.00 | 0.00 | 85 | 1005.7 |
| 20260503012705 | 44 | 238 | 7.0 | 11.3 | 0.00 | 0.00 | 0.00 | 84 | 1005.7 |
| 20260503010705 | 44 | 204 | 7.8 | 13.0 | 0.00 | 0.00 | 0.00 | 85 | 1005.5 |
| 20260503004705 | 44 | 204 | 6.1 | 9.6 | 0.00 | 0.00 | 0.00 | 85 | 1005.8 |
| 20260503002705 | 45 | 228 | 7.8 | 13.9 | 0.00 | 0.00 | 0.00 | 81 | 1006.1 |
| 20260503000705 | 46 | 223 | 5.2 | 9.6 | 0.00 | 0.00 | 0.00 | 80 | 1006.2 |
| 20260502234705 | 45 | 214 | 5.2 | 9.6 | 0.00 | 0.00 | 0.00 | 82 | 1006.5 |
| 20260502232705 | 46 | 218 | 7.0 | 11.3 | 0.00 | 0.00 | 0.00 | 78 | 1006.6 |
| 20260502230704 | 46 | 211 | 7.8 | 12.2 | 0.00 | 0.00 | 0.00 | 77 | 1006.8 |
| 20260502224705 | 47 | 208 | 6.1 | 12.2 | 0.00 | 0.00 | 0.00 | 77 | 1006.9 |
| 20260502222705 | 46 | 211 | 7.0 | 13.9 | 0.00 | 0.00 | 0.00 | 77 | 1007.1 |
| 20260502220705 | 46 | 216 | 7.8 | 14.8 | 0.00 | 0.00 | 0.00 | 78 | 1007.4 |
| 20260502214704 | 46 | 213 | 7.0 | 11.3 | 0.00 | 0.00 | 0.00 | 78 | 1007.5 |
| 20260502212704 | 46 | 213 | 7.0 | 13.9 | 0.00 | 0.00 | 0.00 | 78 | 1007.8 |
| 20260502210704 | 47 | 208 | 7.8 | 13.0 | 0.00 | 0.00 | 0.00 | 77 | 1008.0 |
| 20260502204705 | 46 | 202 | 8.7 | 11.3 | 0.00 | 0.00 | 0.00 | 79 | 1008.1 |